Theta_e
353 359 361 361 360 362 363 363 363 363 362 360 361 361 361 361 361 360 358 358 359 357 356 356 357 356 355 355 355 355 355 353 350 347 347 349 350 350 351 352 353 346 347
357 359 361 361 360 361 362 362 362 361 360 360 359 359 360 360 359 358 359 359 359 357 357 358 358 356 355 353 354 353 352 351 349 350 351 354 350 348 348 351 353 346 349
358 358 358 360 360 361 361 360 361 361 361 360 359 358 359 359 358 358 359 359 358 358 358 358 357 355 354 353 352 350 348 348 348 349 350 343 343 348 354 350 354 351 349
358 358 355 360 360 360 360 360 360 361 361 360 359 358 358 358 358 357 359 359 358 358 358 357 355 353 352 350 348 346 346 346 347 349 340 336 337 346 345 355 353 351 350
358 357 358 360 359 360 360 359 358 358 359 359 359 358 358 358 358 358 358 358 356 355 354 353 351 350 348 347 346 345 345 346 348 344 338 337 338 341 341 349 356 353 352
356 355 359 360 359 359 360 359 359 359 358 358 357 357 358 357 357 358 357 356 355 353 351 350 349 348 347 346 347 347 347 347 347 339 341 341 341 343 342 350 356 358 354
355 354 357 360 359 359 359 359 359 359 358 357 356 356 356 356 355 356 355 354 353 351 350 348 348 347 348 348 348 350 350 347 344 343 345 346 345 344 345 348 357 359 357
355 355 356 359 359 357 358 358 359 359 359 358 357 356 355 354 354 352 352 351 350 349 348 347 348 349 350 350 350 350 350 349 348 350 349 349 349 347 348 352 352 358 359
356 354 354 354 357 358 357 357 358 359 359 358 356 356 355 353 353 351 351 350 349 348 347 347 349 350 350 350 350 351 351 350 350 348 348 349 349 349 352 355 355 354 355
354 353 352 353 351 353 353 356 357 358 358 358 356 355 355 353 352 351 351 349 347 348 348 349 351 351 351 351 351 352 351 352 347 348 349 352 350 353 357 358 358 358 356
350 351 350 349 352 353 351 353 355 355 356 356 355 354 351 349 349 347 348 348 349 350 352 354 354 353 353 353 350 347 348 348 347 349 352 353 355 356 360 360 360 357 358
347 349 350 350 350 351 350 353 351 349 347 350 352 353 349 350 352 348 347 348 350 351 353 353 353 351 350 351 350 350 349 346 347 350 351 353 354 353 355 358 358 358 357
347 349 350 353 353 350 350 353 350 350 349 350 351 352 352 350 350 347 345 346 350 350 350 351 353 352 351 351 352 353 352 351 351 352 351 351 349 350 350 351 356 357 357
345 349 351 352 352 353 352 351 351 349 349 347 348 351 351 347 348 345 343 346 350 354 352 353 352 352 354 355 354 353 352 351 350 350 348 343 340 342 342 343 345 347 352
344 347 349 349 353 353 353 351 350 351 349 348 348 349 349 348 346 344 344 349 353 353 353 353 355 357 355 351 346 348 344 345 340 343 343 335 334 335 334 335 336 339 343
344 345 347 348 352 352 352 351 351 352 351 349 346 345 348 348 346 343 345 354 353 358 358 357 356 350 338 334 331 339 333 339 333 336 333 331 328 327 328 329 332 335 338
344 346 344 346 347 349 352 351 351 351 350 348 345 347 346 348 347 347 352 353 359 361 359 354 338 334 331 328 328 331 329 328 329 329 326 325 324 324 324 325 327 331 335
343 344 346 346 347 351 350 350 349 349 348 346 344 343 344 346 347 351 354 358 360 355 350 340 335 332 325 324 325 327 328 325 326 325 324 323 322 320 321 322 324 326 330
341 343 343 345 345 347 347 345 346 347 344 343 344 343 345 346 350 353 357 350 344 337 337 338 329 326 323 322 321 322 330 322 324 323 323 322 322 321 320 320 321 321 326
341 343 343 343 344 345 342 343 343 345 347 349 351 352 351 352 353 356 337 330 330 330 331 331 329 325 322 321 318 319 331 324 322 322 322 320 321 320 320 321 321 320 322
341 343 343 342 345 347 345 345 347 347 351 351 353 353 352 354 342 334 329 326 325 324 324 325 323 323 319 322 317 318 322 325 323 318 322 320 320 319 319 319 319 321 321
342 344 344 344 348 349 350 351 349 348 347 348 348 349 349 343 335 330 325 323 323 321 322 325 324 319 318 322 314 314 309 314 319 319 322 319 319 317 317 318 320 320 320
340 342 344 345 349 351 352 350 345 342 342 341 342 336 341 340 334 328 323 321 319 321 321 322 323 323 316 321 322 313 308 306 310 318 317 318 318 316 317 318 319 318 319
340 343 345 346 349 349 348 342 342 339 336 341 335 333 333 337 330 325 322 321 320 320 322 322 322 320 320 316 320 320 319 315 307 305 314 315 316 315 316 317 317 316 317
342 343 346 346 345 345 346 345 339 340 336 334 332 330 329 329 326 323 321 321 321 324 321 321 321 321 322 319 318 316 316 314 315 309 305 309 313 314 315 316 316 315 315
341 340 341 342 343 344 345 345 344 341 333 331 329 326 324 323 322 322 322 322 323 323 322 320 322 320 319 318 317 315 311 308 308 308 307 308 308 310 313 315 314 313 313
Wind_Speed
15 19 19 17 16 15 17 19 18 18 17 17 17 19 17 15 13 13 12 12 10 11 12 12 11 10 10 9 8 7 7 6 4 2 0 2 3 3 4 5 6 5 4
20 19 20 18 17 16 18 19 18 17 17 16 17 17 16 14 13 12 12 11 10 11 11 10 10 8 8 7 6 6 5 4 3 3 4 6 6 6 6 7 7 3 5
22 19 19 19 18 16 18 19 17 16 16 15 16 16 15 14 13 12 11 10 10 10 9 9 8 7 6 5 5 5 5 4 4 5 5 6 6 5 9 8 9 8 8
21 18 18 20 19 17 18 18 17 16 15 15 15 15 14 13 12 12 10 9 10 9 8 7 6 5 4 4 4 4 4 5 5 6 5 5 6 3 9 12 11 10 10
21 18 17 20 20 18 18 19 18 16 15 15 15 14 13 13 11 10 9 8 8 6 5 4 4 3 2 3 3 3 4 5 6 7 6 6 6 3 9 10 13 13 12
20 19 18 18 18 18 18 18 18 16 15 14 14 14 13 12 10 9 7 6 6 5 4 3 2 3 5 5 6 6 7 8 10 7 6 7 8 6 11 10 13 14 12
18 17 17 17 17 18 18 18 18 17 15 14 13 12 12 11 10 8 7 5 4 3 2 1 3 5 6 7 8 8 8 10 9 8 8 8 8 8 12 12 11 15 15
18 18 16 16 16 16 17 17 16 16 14 13 12 11 10 8 8 7 5 4 2 1 0 1 3 5 6 7 8 9 9 10 8 7 8 8 7 11 13 13 12 14 16
17 17 15 15 14 14 15 17 16 14 13 12 11 9 8 7 5 5 3 2 2 2 2 3 4 5 6 8 9 9 10 10 9 6 8 6 9 12 13 13 14 15 16
17 16 16 14 14 13 13 15 15 14 12 11 10 9 7 6 4 3 2 3 3 3 4 5 6 6 7 8 9 9 10 10 7 7 5 7 13 14 14 14 14 14 14
15 17 17 16 14 13 12 12 14 14 12 10 9 8 7 4 4 3 2 3 5 6 7 7 7 7 8 8 6 7 9 4 6 4 5 10 12 13 13 13 13 12 12
18 17 16 15 14 12 9 11 9 10 8 7 7 7 4 4 1 3 4 5 7 7 6 6 7 7 6 5 4 3 4 5 4 5 5 12 12 14 16 17 16 14 10
16 13 14 14 12 12 9 7 5 5 5 5 6 5 3 2 2 3 3 3 3 3 4 3 3 3 5 4 4 4 5 6 5 5 8 14 16 17 19 19 19 20 16
15 14 15 14 12 11 8 7 7 6 5 4 5 5 3 3 2 3 3 4 4 3 5 3 3 4 3 5 6 6 7 6 5 4 7 15 16 16 18 20 22 22 21
16 14 14 11 12 11 10 7 5 5 5 5 5 5 3 2 3 4 4 5 4 4 4 3 2 2 4 5 5 6 7 7 7 5 4 14 17 19 20 21 21 21 23
15 16 14 15 13 12 9 9 7 6 6 4 4 4 5 3 3 3 4 5 4 4 3 2 4 4 5 4 4 6 6 6 6 6 5 6 14 18 19 20 21 22 22
15 15 16 14 13 14 13 10 7 7 7 6 5 6 6 5 4 4 4 3 2 2 3 3 4 3 2 3 5 5 4 5 6 7 7 6 7 13 16 20 20 21 21
17 18 17 14 14 13 11 9 6 6 5 5 4 4 5 5 4 3 3 2 3 2 3 4 4 3 5 6 5 4 3 4 6 6 7 6 8 8 10 19 19 18 18
17 17 17 15 16 14 10 7 7 7 6 5 4 4 5 5 6 5 1 6 8 7 5 4 4 5 7 8 6 4 3 4 5 5 6 6 9 10 9 15 16 14 16
17 17 15 14 14 14 9 8 7 6 6 6 5 5 5 2 3 6 8 9 6 6 5 3 4 7 6 8 7 4 2 3 4 3 3 5 8 11 11 12 10 9 13
16 18 17 16 15 11 11 11 9 9 9 8 6 7 7 6 11 11 9 9 6 4 4 5 3 5 8 10 6 2 1 2 2 6 2 5 10 12 11 9 8 8 8
19 18 18 16 17 14 12 10 8 10 7 8 10 14 16 14 12 10 13 11 5 1 4 6 5 2 4 7 5 3 4 1 3 3 2 5 9 11 11 10 8 9 9
18 19 18 17 17 14 14 8 5 4 4 3 4 7 8 16 15 14 15 10 4 3 2 4 5 5 2 1 6 4 3 4 10 0 5 6 8 11 11 9 7 9 10
16 16 16 16 14 11 10 8 8 5 4 3 6 7 8 12 14 13 15 11 5 3 1 2 3 2 4 3 0 3 2 4 4 6 3 8 8 10 12 8 7 10 10
15 15 14 12 10 8 8 7 6 5 7 6 8 13 13 11 12 10 12 7 4 3 2 1 1 3 2 1 2 3 3 5 5 6 10 10 8 7 9 7 7 8 9
13 12 11 11 11 9 8 7 7 9 10 9 10 10 8 8 9 8 9 5 5 3 4 1 2 2 2 0 2 3 4 4 6 5 9 12 13 9 10 6 9 7 9
Wind_Direction
163 153 151 150 138 136 124 120 126 131 133 136 136 127 130 136 139 137 132 128 123 121 114 106 101 97 95 96 97 96 97 91 81 75 136 232 243 255 261 252 234 241 193
148 151 148 147 141 142 131 127 130 133 134 134 129 125 129 135 135 135 133 128 127 124 115 109 104 99 96 93 88 77 67 60 34 345 303 250 239 255 261 289 232 284 234
144 149 150 148 144 147 137 131 131 131 131 130 126 129 132 135 136 136 129 131 132 125 120 116 113 106 92 75 58 45 32 17 359 326 307 289 300 259 261 254 235 239 239
143 151 153 148 145 150 140 132 130 129 130 131 132 132 132 132 135 137 134 137 137 135 128 124 114 101 80 57 36 20 1 350 332 317 286 302 298 292 288 266 251 248 242
147 147 154 147 146 150 144 136 134 133 134 136 132 129 131 137 140 136 136 140 141 136 133 122 110 95 61 19 359 344 335 328 318 290 310 301 299 301 298 269 243 240 238
148 147 148 145 147 148 145 140 136 135 133 131 131 135 141 139 135 134 140 143 144 145 134 114 54 12 356 346 332 329 327 326 311 316 315 311 288 313 289 284 243 239 232
146 147 148 146 148 151 150 143 139 135 136 136 138 141 141 143 143 146 148 154 161 156 138 56 3 346 336 330 327 325 325 327 315 324 315 305 304 304 292 285 263 241 237
148 146 148 147 151 153 150 144 140 138 139 140 142 138 139 140 145 151 154 162 185 186 262 333 343 332 325 319 317 316 318 327 313 326 323 317 321 295 294 289 276 254 242
150 149 151 158 153 151 152 145 141 140 139 142 138 139 138 141 147 152 158 191 232 279 313 319 318 316 315 315 310 312 317 320 308 336 321 323 344 302 303 286 270 261 259
156 156 157 160 162 163 158 148 143 143 144 142 142 140 136 143 151 170 201 221 286 305 307 309 310 310 310 305 302 315 322 298 340 326 330 355 321 324 314 303 290 272 265
166 167 165 162 165 164 162 152 144 150 148 151 151 140 154 169 184 189 24 311 308 308 303 308 305 303 306 281 294 313 307 341 334 345 334 357 334 338 332 326 310 302 254
171 174 167 165 163 164 159 155 157 158 173 179 173 168 176 166 199 293 288 301 297 300 290 302 299 304 276 325 331 276 358 342 335 331 353 355 355 1 2 356 345 328 309
173 172 169 165 160 170 160 156 157 157 163 173 181 176 157 179 215 258 285 282 293 277 299 295 284 312 338 345 0 353 345 332 338 342 29 16 19 16 12 4 360 356 344
174 177 175 165 164 165 161 165 165 167 166 174 173 180 182 217 249 283 292 304 291 306 306 300 325 337 13 15 10 349 354 348 353 346 55 31 29 26 24 18 11 3 2
173 173 173 165 172 164 167 160 174 167 175 168 176 182 195 228 285 297 308 304 313 305 312 323 332 0 36 22 4 359 8 7 8 3 29 41 34 28 21 16 14 9 5
172 169 169 176 171 165 172 170 172 174 163 176 183 185 189 220 244 285 302 314 306 314 339 27 33 24 30 3 1 25 19 29 27 22 29 41 37 27 19 14 12 10 8
173 164 171 180 176 179 177 178 176 177 171 176 190 192 199 211 234 277 303 308 305 13 27 69 48 38 0 4 26 40 22 38 49 40 33 25 16 28 15 15 11 13 10
171 176 171 177 177 181 178 169 173 172 181 176 181 197 210 217 223 240 297 312 9 13 36 42 5 346 4 6 3 33 44 54 61 52 44 28 19 7 4 10 9 12 12
168 168 172 174 175 172 169 162 163 163 180 174 174 179 196 224 204 205 203 46 34 17 2 347 2 23 17 356 339 11 81 65 54 48 35 22 23 8 360 2 1 5 11
165 172 160 164 169 167 155 159 154 166 171 168 168 167 160 190 254 93 82 70 49 29 322 344 346 30 21 351 334 360 121 98 67 38 17 18 15 7 6 360 350 355 8
163 166 165 163 167 159 162 161 161 166 159 157 156 164 158 137 111 113 92 75 41 51 321 321 1 16 20 1 317 324 320 231 217 346 352 11 10 2 358 356 355 357 350
169 170 169 165 169 170 173 179 180 169 185 177 173 157 149 134 122 119 105 100 96 25 9 2 351 33 27 10 337 317 337 229 228 337 332 13 9 347 348 347 356 353 348
174 173 174 169 173 176 182 167 108 92 98 106 86 67 109 120 122 105 100 96 91 69 40 339 337 23 3 30 33 1 318 329 336 86 320 356 354 339 338 337 354 347 350
176 174 173 170 174 168 163 157 162 144 141 75 86 89 88 107 111 110 106 119 142 130 162 262 344 342 286 356 114 23 348 311 308 306 333 327 333 330 337 332 336 340 345
173 174 166 168 174 184 185 169 167 125 104 117 114 103 108 103 99 98 109 127 148 139 235 234 292 262 258 321 343 333 341 303 271 293 313 331 324 337 326 312 327 331 338
172 170 168 164 172 179 195 189 192 151 138 134 132 121 115 108 103 118 123 142 114 187 197 174 222 254 296 346 11 1 336 311 317 315 314 320 325 343 323 312 328 340 341